﻿測定場所 (Monitoring sites),日付 (Measurement date),時間 (Measurement time),線量率 最大値 (max) μGy/h,線量率 最小値 (min) μGy/h,線量率 平均値 (average) μGy/h,
大田 (Ota),2022-04-03,23:01～24:00,0.0354,0.0307,0.0330,
大田 (Ota),2022-04-03,22:01～23:00,0.0377,0.0330,0.0352,
大田 (Ota),2022-04-03,21:01～22:00,0.0390,0.0344,0.0368,
大田 (Ota),2022-04-03,20:01～21:00,0.0408,0.0356,0.0382,
大田 (Ota),2022-04-03,19:01～20:00,0.0411,0.0352,0.0375,
大田 (Ota),2022-04-03,18:01～19:00,0.0395,0.0340,0.0373,
大田 (Ota),2022-04-03,17:01～18:00,0.0380,0.0332,0.0358,
大田 (Ota),2022-04-03,16:01～17:00,0.0377,0.0330,0.0350,
大田 (Ota),2022-04-03,15:01～16:00,0.0362,0.0319,0.0341,
大田 (Ota),2022-04-03,14:01～15:00,0.0384,0.0320,0.0346,
大田 (Ota),2022-04-03,13:01～14:00,0.0405,0.0343,0.0371,
大田 (Ota),2022-04-03,12:01～13:00,0.0412,0.0348,0.0386,
大田 (Ota),2022-04-03,11:01～12:00,0.0402,0.0349,0.0377,
大田 (Ota),2022-04-03,10:01～11:00,0.0401,0.0336,0.0362,
大田 (Ota),2022-04-03,09:01～10:00,0.0390,0.0344,0.0371,
大田 (Ota),2022-04-03,08:01～09:00,0.0393,0.0353,0.0372,
大田 (Ota),2022-04-03,07:01～08:00,0.0377,0.0323,0.0351,
大田 (Ota),2022-04-03,06:01～07:00,0.0356,0.0305,0.0329,
大田 (Ota),2022-04-03,05:01～06:00,0.0359,0.0309,0.0331,
大田 (Ota),2022-04-03,04:01～05:00,0.0355,0.0304,0.0332,
大田 (Ota),2022-04-03,03:01～04:00,0.0357,0.0305,0.0330,
大田 (Ota),2022-04-03,02:01～03:00,0.0355,0.0315,0.0338,
大田 (Ota),2022-04-03,01:01～02:00,0.0359,0.0306,0.0337,
大田 (Ota),2022-04-03,00:01～01:00,0.0351,0.0311,0.0330,
大田 (Ota),2022-04-02,23:01～24:00,0.0348,0.0300,0.0324,
大田 (Ota),2022-04-02,22:01～23:00,0.0353,0.0304,0.0326,
大田 (Ota),2022-04-02,21:01～22:00,0.0344,0.0289,0.0326,
大田 (Ota),2022-04-02,20:01～21:00,0.0351,0.0303,0.0327,
大田 (Ota),2022-04-02,19:01～20:00,0.0349,0.0307,0.0325,
大田 (Ota),2022-04-02,18:01～19:00,0.0361,0.0294,0.0327,
大田 (Ota),2022-04-02,17:01～18:00,0.0364,0.0304,0.0326,
大田 (Ota),2022-04-02,16:01～17:00,0.0351,0.0305,0.0327,
大田 (Ota),2022-04-02,15:01～16:00,0.0349,0.0312,0.0328,
大田 (Ota),2022-04-02,14:01～15:00,0.0353,0.0304,0.0328,
大田 (Ota),2022-04-02,13:01～14:00,0.0355,0.0303,0.0326,
大田 (Ota),2022-04-02,12:01～13:00,0.0365,0.0294,0.0329,
大田 (Ota),2022-04-02,11:01～12:00,0.0355,0.0309,0.0328,
大田 (Ota),2022-04-02,10:01～11:00,0.0348,0.0298,0.0327,
大田 (Ota),2022-04-02,09:01～10:00,0.0348,0.0307,0.0329,
大田 (Ota),2022-04-02,08:01～09:00,0.0358,0.0310,0.0328,
大田 (Ota),2022-04-02,07:01～08:00,0.0346,0.0305,0.0327,
大田 (Ota),2022-04-02,06:01～07:00,0.0343,0.0307,0.0327,
大田 (Ota),2022-04-02,05:01～06:00,0.0353,0.0304,0.0327,
大田 (Ota),2022-04-02,04:01～05:00,0.0344,0.0289,0.0324,
大田 (Ota),2022-04-02,03:01～04:00,0.0344,0.0297,0.0325,
大田 (Ota),2022-04-02,02:01～03:00,0.0346,0.0307,0.0323,
大田 (Ota),2022-04-02,01:01～02:00,0.0351,0.0302,0.0323,
大田 (Ota),2022-04-02,00:01～01:00,0.0343,0.0310,0.0325,
大田 (Ota),2022-04-01,23:01～24:00,0.0347,0.0300,0.0322,
大田 (Ota),2022-04-01,22:01～23:00,0.0349,0.0307,0.0324,
大田 (Ota),2022-04-01,21:01～22:00,0.0340,0.0297,0.0324,
大田 (Ota),2022-04-01,20:01～21:00,0.0349,0.0295,0.0324,
大田 (Ota),2022-04-01,19:01～20:00,0.0349,0.0302,0.0324,
大田 (Ota),2022-04-01,18:01～19:00,0.0346,0.0303,0.0322,
大田 (Ota),2022-04-01,17:01～18:00,0.0355,0.0304,0.0326,
大田 (Ota),2022-04-01,16:01～17:00,0.0347,0.0303,0.0328,
大田 (Ota),2022-04-01,15:01～16:00,0.0349,0.0305,0.0326,
大田 (Ota),2022-04-01,14:01～15:00,0.0350,0.0303,0.0327,
大田 (Ota),2022-04-01,13:01～14:00,0.0357,0.0308,0.0329,
大田 (Ota),2022-04-01,12:01～13:00,0.0348,0.0302,0.0326,
大田 (Ota),2022-04-01,11:01～12:00,0.0351,0.0298,0.0321,
大田 (Ota),2022-04-01,10:01～11:00,0.0348,0.0304,0.0325,
大田 (Ota),2022-04-01,09:01～10:00,0.0356,0.0304,0.0332,
大田 (Ota),2022-04-01,08:01～09:00,0.0430,0.0325,0.0374,
大田 (Ota),2022-04-01,07:01～08:00,0.0567,0.0420,0.0492,
大田 (Ota),2022-04-01,06:01～07:00,0.0562,0.0492,0.0524,
大田 (Ota),2022-04-01,05:01～06:00,0.0519,0.0461,0.0490,
大田 (Ota),2022-04-01,04:01～05:00,0.0536,0.0477,0.0503,
大田 (Ota),2022-04-01,03:01～04:00,0.0555,0.0485,0.0526,
大田 (Ota),2022-04-01,02:01～03:00,0.0550,0.0489,0.0531,
大田 (Ota),2022-04-01,01:01～02:00,0.0546,0.0469,0.0502,
大田 (Ota),2022-04-01,00:01～01:00,0.0513,0.0443,0.0478,
大田 (Ota),2022-03-31,23:01～24:00,0.0482,0.0395,0.0437,
大田 (Ota),2022-03-31,22:01～23:00,0.0499,0.0429,0.0469,
大田 (Ota),2022-03-31,21:01～22:00,0.0530,0.0319,0.0387,
大田 (Ota),2022-03-31,20:01～21:00,0.0380,0.0332,0.0356,
大田 (Ota),2022-03-31,19:01～20:00,0.0363,0.0310,0.0336,
大田 (Ota),2022-03-31,18:01～19:00,0.0355,0.0316,0.0333,
大田 (Ota),2022-03-31,17:01～18:00,0.0367,0.0300,0.0330,
大田 (Ota),2022-03-31,16:01～17:00,0.0356,0.0308,0.0332,
大田 (Ota),2022-03-31,15:01～16:00,0.0355,0.0308,0.0332,
大田 (Ota),2022-03-31,14:01～15:00,0.0348,0.0308,0.0331,
大田 (Ota),2022-03-31,13:01～14:00,0.0355,0.0290,0.0330,
大田 (Ota),2022-03-31,12:01～13:00,0.0349,0.0309,0.0331,
大田 (Ota),2022-03-31,11:01～12:00,0.0348,0.0301,0.0329,
大田 (Ota),2022-03-31,10:01～11:00,0.0356,0.0313,0.0331,
大田 (Ota),2022-03-31,09:01～10:00,0.0357,0.0313,0.0333,
大田 (Ota),2022-03-31,08:01～09:00,0.0360,0.0307,0.0332,
大田 (Ota),2022-03-31,07:01～08:00,0.0349,0.0304,0.0330,
大田 (Ota),2022-03-31,06:01～07:00,0.0346,0.0307,0.0328,
大田 (Ota),2022-03-31,05:01～06:00,0.0353,0.0298,0.0328,
大田 (Ota),2022-03-31,04:01～05:00,0.0346,0.0303,0.0327,
大田 (Ota),2022-03-31,03:01～04:00,0.0354,0.0300,0.0325,
大田 (Ota),2022-03-31,02:01～03:00,0.0352,0.0309,0.0329,
大田 (Ota),2022-03-31,01:01～02:00,0.0356,0.0306,0.0329,
大田 (Ota),2022-03-31,00:01～01:00,0.0343,0.0303,0.0328,
大田 (Ota),2022-03-30,23:01～24:00,0.0346,0.0304,0.0324,
大田 (Ota),2022-03-30,22:01～23:00,0.0346,0.0301,0.0326,
大田 (Ota),2022-03-30,21:01～22:00,0.0355,0.0301,0.0328,
大田 (Ota),2022-03-30,20:01～21:00,0.0353,0.0305,0.0324,
大田 (Ota),2022-03-30,19:01～20:00,0.0342,0.0291,0.0325,
大田 (Ota),2022-03-30,18:01～19:00,0.0353,0.0295,0.0324,
大田 (Ota),2022-03-30,17:01～18:00,0.0355,0.0300,0.0326,
大田 (Ota),2022-03-30,16:01～17:00,0.0340,0.0238,0.0318,
大田 (Ota),2022-03-30,13:01～14:00,0.0278,0.0260,0.0268,
大田 (Ota),2022-03-30,10:01～11:00,0.0291,0.0281,0.0286,
大田 (Ota),2022-03-30,09:01～10:00,0.0343,0.0282,0.0317,
大田 (Ota),2022-03-30,08:01～09:00,0.0347,0.0305,0.0327,
大田 (Ota),2022-03-30,07:01～08:00,0.0358,0.0309,0.0328,
大田 (Ota),2022-03-30,06:01～07:00,0.0366,0.0308,0.0338,
大田 (Ota),2022-03-30,05:01～06:00,0.0392,0.0333,0.0357,
大田 (Ota),2022-03-30,04:01～05:00,0.0394,0.0308,0.0340,
大田 (Ota),2022-03-30,03:01～04:00,0.0355,0.0304,0.0330,
大田 (Ota),2022-03-30,02:01～03:00,0.0345,0.0307,0.0326,
大田 (Ota),2022-03-30,01:01～02:00,0.0353,0.0306,0.0328,
大田 (Ota),2022-03-30,00:01～01:00,0.0347,0.0306,0.0329,
大田 (Ota),2022-03-29,23:01～24:00,0.0350,0.0316,0.0332,
大田 (Ota),2022-03-29,22:01～23:00,0.0356,0.0316,0.0340,
大田 (Ota),2022-03-29,21:01～22:00,0.0381,0.0319,0.0347,
大田 (Ota),2022-03-29,20:01～21:00,0.0348,0.0304,0.0324,
大田 (Ota),2022-03-29,19:01～20:00,0.0351,0.0301,0.0327,
大田 (Ota),2022-03-29,18:01～19:00,0.0352,0.0308,0.0328,
大田 (Ota),2022-03-29,17:01～18:00,0.0346,0.0310,0.0328,
大田 (Ota),2022-03-29,16:01～17:00,0.0343,0.0306,0.0327,
大田 (Ota),2022-03-29,15:01～16:00,0.0351,0.0309,0.0327,
大田 (Ota),2022-03-29,14:01～15:00,0.0345,0.0307,0.0330,
大田 (Ota),2022-03-29,13:01～14:00,0.0353,0.0310,0.0327,
大田 (Ota),2022-03-29,12:01～13:00,0.0349,0.0310,0.0328,
大田 (Ota),2022-03-29,11:01～12:00,0.0339,0.0308,0.0326,
大田 (Ota),2022-03-29,10:01～11:00,0.0347,0.0302,0.0328,
大田 (Ota),2022-03-29,09:01～10:00,0.0342,0.0298,0.0322,
大田 (Ota),2022-03-29,08:01～09:00,0.0356,0.0305,0.0325,
大田 (Ota),2022-03-29,07:01～08:00,0.0355,0.0307,0.0325,
大田 (Ota),2022-03-29,06:01～07:00,0.0342,0.0305,0.0324,
大田 (Ota),2022-03-29,05:01～06:00,0.0341,0.0303,0.0323,
大田 (Ota),2022-03-29,04:01～05:00,0.0344,0.0301,0.0324,
大田 (Ota),2022-03-29,03:01～04:00,0.0342,0.0295,0.0324,
大田 (Ota),2022-03-29,02:01～03:00,0.0349,0.0308,0.0327,
大田 (Ota),2022-03-29,01:01～02:00,0.0342,0.0299,0.0325,
大田 (Ota),2022-03-29,00:01～01:00,0.0345,0.0301,0.0322,
大田 (Ota),2022-03-28,23:01～24:00,0.0344,0.0304,0.0326,
大田 (Ota),2022-03-28,22:01～23:00,0.0345,0.0306,0.0324,
大田 (Ota),2022-03-28,21:01～22:00,0.0342,0.0293,0.0319,
大田 (Ota),2022-03-28,20:01～21:00,0.0348,0.0302,0.0325,
大田 (Ota),2022-03-28,19:01～20:00,0.0342,0.0303,0.0323,
大田 (Ota),2022-03-28,18:01～19:00,0.0341,0.0298,0.0323,
大田 (Ota),2022-03-28,17:01～18:00,0.0341,0.0311,0.0324,
大田 (Ota),2022-03-28,16:01～17:00,0.0341,0.0304,0.0324,
大田 (Ota),2022-03-28,15:01～16:00,0.0347,0.0304,0.0324,
大田 (Ota),2022-03-28,14:01～15:00,0.0355,0.0295,0.0330,
大田 (Ota),2022-03-28,13:01～14:00,0.0351,0.0300,0.0326,
大田 (Ota),2022-03-28,12:01～13:00,0.0346,0.0307,0.0328,
大田 (Ota),2022-03-28,11:01～12:00,0.0345,0.0309,0.0328,
大田 (Ota),2022-03-28,10:01～11:00,0.0348,0.0308,0.0328,
大田 (Ota),2022-03-28,09:01～10:00,0.0351,0.0304,0.0330,
大田 (Ota),2022-03-28,08:01～09:00,0.0348,0.0304,0.0325,
大田 (Ota),2022-03-28,07:01～08:00,0.0352,0.0310,0.0327,
大田 (Ota),2022-03-28,06:01～07:00,0.0346,0.0308,0.0326,
大田 (Ota),2022-03-28,05:01～06:00,0.0344,0.0302,0.0323,
大田 (Ota),2022-03-28,04:01～05:00,0.0355,0.0312,0.0328,
大田 (Ota),2022-03-28,03:01～04:00,0.0345,0.0310,0.0326,
大田 (Ota),2022-03-28,02:01～03:00,0.0347,0.0308,0.0326,
大田 (Ota),2022-03-28,01:01～02:00,0.0345,0.0305,0.0326,
大田 (Ota),2022-03-28,00:01～01:00,0.0351,0.0302,0.0327,
